Regional Weather Roundup
Issued by NWS

Home | Current Version | Previous Version | Text Only | Print | Product List | Glossary On
Versions: 1 2 3 4 5 6 7 8 9 10 11 12 13 14 15 16 17 18 19 20 21 22 23 24 25 26 27 28 29 30 31 32 33 34 35 36 37 38 39 40 41 42 43 44 45 46 47 48 49 50
000
ASHW40 PHFO 230743
RWRHI

WEATHER ROUNDUP FOR HAWAII
NATIONAL WEATHER SERVICE HONOLULU HI
900 PM HST FRI AUG 22 2014

THIS IS AN AUTOMATED REPORT THAT HAS NOT BEEN QUALITY CONTROLLED.

NOTE..."FAIR" INDICATES FEW OR NO CLOUDS BELOW 12,000 FEET WITH NO
SIGNIFICANT WEATHER AND/OR OBSTRUCTIONS TO VISIBILITY.

* - THESE SITES REPORT LIMITED FIELDS

HIZ001>004-230800-
KAUAI-NIIHAU-

CITY           SKY/WX    TMP DP  RH WIND       PRES   REMARKS
LIHUE APT      PTCLDY    78  67  68 NE18      30.04R
PORT ALLEN*      N/A     77 N/A N/A E10G17      N/A
POIPU*           N/A     77 N/A N/A NE7G16      N/A
PRINCEVILLE*   NOT AVBL
KOKOLE POINT*  NOT AVBL
MOLOAA DAIRY*  NOT AVBL
WAIMEA HTS*      N/A     75  57  53 E2G10       N/A
PUU OPAE*        N/A     70  57  64 E1G15       N/A
PUU LUA*       NOT AVBL
MAKAHA RIDGE*  NOT AVBL
$$

HIZ005>011-230800-
OAHU-

CITY           SKY/WX    TMP DP  RH WIND       PRES   REMARKS
HONOLULU       PTCLDY    80  65  59 NE14      30.00R
KALAELOA       PTCLDY    77  64  65 VRB3      30.02R
KANEOHE MCB    PTCLDY    77  68  73 NE13G20   30.02R
WHEELER FIELD  FAIR      75  65  70 N8        30.03R
BELLOWS*         N/A    N/A N/A N/A NE18        N/A
KAHUKU*          N/A    N/A N/A N/A NE8G16      N/A
WHEELER*       NOT AVBL
WAIANAE HARBOR NOT AVBL
DILLINGHAM*      N/A     75  68  78 E3G9        N/A
KAHUKU TRN*      N/A     75  66  73 E10G22      N/A
KAWAILOA*      NOT AVBL
KII*             N/A     79  70  73 E16G22      N/A
MAKUA RANGE*     N/A     79  66  65 E9G17       N/A
OAHU FOREST NW   N/A     66  66 100 N24G40      N/A
SCHOFIELD BRK*   N/A     72  64  78 MISG        N/A
SCHOFIELD S*   NOT AVBL
WAIANAE VLY*   NOT AVBL
KUAOKALA*        N/A     73  64  73 CALM        N/A
HONOULIUULI*   NOT AVBL
MOKUOLOE IS*     N/A    N/A N/A N/A MISG        N/A
PALEHUA*         N/A     81  64  57 CALM        N/A
WAIAWA PHB*    NOT AVBL
$$

HIZ012>013-230800-
MOLOKAI-

CITY           SKY/WX    TMP DP  RH WIND       PRES   REMARKS
MOLOKAI AIRPT  PTCLDY    77  69  76 NE10G21   30.01R
KALAUPAPA      NOT AVBL
MAKAPULAPAI*     N/A     79  66  65 E20G26      N/A
MOLOKAI 1*     NOT AVBL
PUU ALII*        N/A     59  58  98 E3G12       N/A
$$

HIZ016-230800-
KAHOOLAWE-

CITY           SKY/WX    TMP DP  RH WIND       PRES   REMARKS
KAHOOLAWE*       N/A     72 N/A N/A N10G17      N/A
HAKIOAWA*      NOT AVBL
HONOKANAIA*      N/A     80  69  67 NE12G25   29.99R
KANELOA*         N/A     73  70  88 E13G29    30.09R
KEALIALALO*    NOT AVBL
LUA MAKIKA*    NOT AVBL
$$

HIZ014>015-230800-
LANAI-

CITY           SKY/WX    TMP DP  RH WIND       PRES   REMARKS
LANAI CITY     FAIR      73  67  81 NE23G32   30.04R
LANAI 1*       NOT AVBL
$$

HIZ017>028-230800-
MAUI-

CITY           SKY/WX    TMP DP  RH WIND       PRES   REMARKS
KAHULUI        LGT RAIN  75  70  84 NE9       30.01R
KAPALUA-W MAUI NOT AVBL
HANA AIRPORT   CLOUDY    73  68  83 CALM      30.05R
HANA*            N/A     77 N/A N/A NE10G16     N/A
HALEAKALA SUMM   N/A     46  10  23 E14         N/A
MAALAEA BAY*   NOT AVBL
HALEAKALA*     NOT AVBL
KAUPO GAP*       N/A     63  63 100 CALM        N/A
KULA 1*          N/A    N/A N/A N/A E5          N/A
$$

HIZ023>026-230800-
BIG ISLAND OF HAWAII COAST AND LOWER SLOPES-

CITY           SKY/WX    TMP DP  RH WIND       PRES   REMARKS
KAILUA KONA    PTCLDY    82  64  54 N10       29.93S
HILO           CLOUDY    73  70  90 W7        30.01R
HONOKAA*       NOT AVBL
KAWAIHAE MWT*    N/A     82 N/A N/A E5G12       N/A
KAWAIHAE*        N/A     82 N/A N/A E9          N/A
SOUTH POINT*     N/A     73 N/A N/A NE10        N/A
UPOLU AIRPORT*   N/A    N/A N/A N/A NE26G36     N/A
KAMUELA*       SUNNY     64  61  88 N13G25    30.09R
HAKALAU*         N/A     53  53  99 N6G12       N/A
KALOKO-HONOKO*   N/A     79  72  78 E8        29.93S
PALI 2*          N/A     66  61  82 N20G32      N/A
KEALAKOMO*       N/A     79  66  65 VRB18G30    N/A
KAUPULEHU*       N/A     73  55  53 NW3G21      N/A
KAPAPALA*        N/A     66  63  91 CALM        N/A
LOWER KAHUKU*  NOT AVBL
PUHE CS*       NOT AVBL
PUHO CS*         N/A     79  70  73 NW2         N/A
PTA KEAMUKU*     N/A     64  55  72 E22G31      N/A
WAIKOLOA*        N/A     73  59  60 NE14G23     N/A
$$

HIZ027>028-230800-
BIG ISLAND OF HAWAII INTERIOR AND SUMMMITS-

CITY           SKY/WX    TMP DP  RH WIND       PRES   REMARKS
BRADSHAW FIELD CLOUDY    54  51  88 SE8       30.31R
MK VISITOR CEN NOT AVBL
MAUNA KEA*       N/A     37 -13  11 SE18        N/A  WCI  27
MAUNA LOA*       N/A     46  -6  11 MISG        N/A
MAUNA LOA 1*     N/A    N/A N/A N/A MISG        N/A
PTA KIPUKA*      N/A     54  50  87 E2          N/A
PTA RANGE 17*    N/A     59  52  77 E10         N/A
PTA WEST*        N/A     55  52  88 SE5         N/A
NENE CABIN*    NOT AVBL
AHUMOA*          N/A     50  33  51 NE3G9       N/A
PTA PORTABLE*  NOT AVBL
PUU MALI*      NOT AVBL
$$

HIC003-230800-
NORTHWEST ISLANDS-

CITY           SKY/WX    TMP DP  RH WIND       PRES   REMARKS
MIDWAY ISLAND  CLEAR     84  75  74 S7        30.06R HX  92
MIDWAY NOS*    NOT AVBL
FRENCH FRIGATE NOT AVBL
$$

PHZ110>124-180-230800-
BUOY REPORTS

STATION/POSITION TIME  TEMP    WIND        PRES    WAVE   SWELL
                       AIR SEA DIR/SP/G            HT/PER HT/DIR
                 (UTC) (F)     (DEG/KT/KT) (MB)    (FT/S) (FT/D)
BUOY 51001       NOT AVBL
BUOY 51101       NOT AVBL
BUOY 51100       0700   78 79   60/ 14/ 17 1016.2R
BUOY 51003       0700   81 82   60/ 16/ 19 1015.0R   6/ 6   3
BUOY 51004       0650   79 80   50/ 14/ 16 1013.4R   7/ 8   5/100
BARBERS PT BUOY  NOT AVBL
WAIMEA BAY BUOY  0700      81                N/A     4/ 6   2/240
KAILUA BAY BUOY  0700      81                N/A     5/ 6   2/150
LANAI BUOY       NOT AVBL
BARBERS PT 2     0700      81                N/A     4/14   3/190
PAUWELA MAUI     0700      80                N/A     6/ 7   2/100
HILO             NOT AVBL
KANEOHE BAY BUOY 0700      80                N/A     5/ 6
HANALEI KAUAI    NOT AVBL
KAHULUI HARBOR   0700   77 81   60/  7/ 10 1016.1R
HONOLULU HARBOR  0700   80      10/  3/ 11 1016.2R
KILO NALU        NOT AVBL
HILO HARBOR      0700   73     240/  5/  6 1015.7R
MOKUOLOE         0700   79 82   60/ 12/ 15 1016.8R
NAWILIWILI       0700      82                N/A
WHOTS BUOY       NOT AVBL
BUOY 51028       NOT AVBL
$$

......................KEY........................................
  SKY/WX - SKY CONDITIONS/PRESENT WEATHER
  TMP    - TEMPERATURE IN FAHRENHEIT
  DWPT   - DEWPOINT IN FAHRENHEIT
  RH     - RELATIVE HUMIDITY IN PERCENT
  WIND   - DIRECTION AND SPEED /MPH FOR ISLANDS...KTS FOR BUOYS/
  PRES   - MEAN SEA LEVEL PRESSURE IN INCHES OF HG
  VSB    - VISIBILITY IN MILES
  HX     - HEAT INDEX
  WCI    - WIND CHILL INDEX
  VRB    - VARIABLE WIND DIRECTION
  N/A    - NOT AVAILABLE


USA.gov is the U.S. government's official web portal to all federal, state and local government web resources and services.